| time (UTC) | temp F | wind direction | speed MPH | gust MPH | rain 1hr in | rain 24hr in | rain mn in | humidity % | barometer mb |
| 20260901104403 | 64 | 303 | 0.0 | 0.0 | 0.00 | 0.00 | 0.00 | 87 | 1007.4 |
| 20260901103904 | 64 | 303 | 0.0 | 0.0 | 0.00 | 0.00 | 0.00 | 87 | 1007.4 |
| 20260901103404 | 65 | 303 | 0.0 | 0.0 | 0.00 | 0.00 | 0.00 | 87 | 1007.4 |
| 20260901102903 | 65 | 303 | 0.0 | 0.0 | 0.00 | 0.00 | 0.00 | 86 | 1007.4 |
| 20260901102403 | 65 | 303 | 0.0 | 0.0 | 0.00 | 0.00 | 0.00 | 86 | 1007.4 |
| 20260901101903 | 65 | 303 | 0.0 | 0.0 | 0.00 | 0.00 | 0.00 | 86 | 1007.3 |
| 20260901101403 | 65 | 303 | 0.0 | 1.0 | 0.00 | 0.00 | 0.00 | 86 | 1007.3 |
| 20260901100903 | 65 | 303 | 0.0 | 1.0 | 0.00 | 0.00 | 0.00 | 84 | 1007.2 |
| 20260901100403 | 65 | 303 | 0.0 | 1.0 | 0.00 | 0.00 | 0.00 | 84 | 1007.1 |
| 20260901095903 | 65 | 303 | 0.0 | 3.0 | 0.00 | 0.00 | 0.00 | 83 | 1007.3 |
| 20260901095403 | 66 | 303 | 0.0 | 3.0 | 0.00 | 0.00 | 0.00 | 82 | 1007.2 |
| 20260901094904 | 66 | 39 | 0.0 | 2.0 | 0.00 | 0.00 | 0.00 | 82 | 1007.2 |
| 20260901094403 | 66 | 39 | 1.0 | 2.0 | 0.00 | 0.00 | 0.00 | 82 | 1007.1 |
| 20260901094129 | 66 | 39 | 0.0 | 0.0 | 0.00 | 0.00 | 0.00 | 81 | 1007.1 |
| 20260901093630 | 66 | 39 | 0.0 | 1.0 | 0.00 | 0.00 | 0.00 | 81 | 1007.1 |
| 20260901092903 | 66 | 39 | 1.0 | 1.0 | 0.00 | 0.00 | 0.00 | 82 | 1007.2 |
| 20260901092403 | 66 | 39 | 1.0 | 2.0 | 0.00 | 0.00 | 0.00 | 82 | 1007.1 |
| 20260901091903 | 66 | 39 | 0.0 | 2.0 | 0.00 | 0.00 | 0.00 | 82 | 1007.0 |
| 20260901091403 | 66 | 39 | 2.0 | 2.0 | 0.00 | 0.00 | 0.00 | 82 | 1007.0 |
| 20260901090903 | 66 | 39 | 0.0 | 0.0 | 0.00 | 0.00 | 0.00 | 82 | 1007.0 |
| 20260901090403 | 66 | 39 | 0.0 | 1.0 | 0.00 | 0.00 | 0.00 | 83 | 1007.1 |
| 20260901085903 | 65 | 39 | 0.0 | 3.0 | 0.00 | 0.00 | 0.00 | 83 | 1007.0 |
| 20260901085405 | 65 | 39 | 1.0 | 3.0 | 0.00 | 0.00 | 0.00 | 83 | 1007.0 |
| 20260901084905 | 65 | 39 | 2.0 | 3.0 | 0.00 | 0.00 | 0.00 | 84 | 1007.1 |
| 20260901084404 | 65 | 39 | 2.0 | 3.0 | 0.00 | 0.00 | 0.00 | 85 | 1007.1 |
| 20260901083905 | 65 | 135 | 2.0 | 3.0 | 0.00 | 0.00 | 0.00 | 85 | 1007.0 |
| 20260901083404 | 65 | 135 | 2.0 | 3.0 | 0.00 | 0.00 | 0.00 | 86 | 1007.1 |
| 20260901082904 | 65 | 135 | 0.0 | 3.0 | 0.00 | 0.00 | 0.00 | 86 | 1007.1 |
| 20260901082405 | 65 | 135 | 1.0 | 3.0 | 0.00 | 0.00 | 0.00 | 87 | 1007.1 |
| 20260901081905 | 64 | 135 | 0.0 | 0.0 | 0.00 | 0.00 | 0.00 | 88 | 1007.1 |
| 20260901081403 | 64 | 135 | 0.0 | 0.0 | 0.00 | 0.00 | 0.00 | 88 | 1007.1 |
| 20260901080903 | 64 | 135 | 0.0 | 0.0 | 0.00 | 0.00 | 0.00 | 87 | 1007.1 |
| 20260901080403 | 64 | 135 | 0.0 | 0.0 | 0.00 | 0.00 | 0.00 | 86 | 1007.1 |
| 20260901075903 | 64 | 135 | 0.0 | 0.0 | 0.00 | 0.00 | 0.00 | 86 | 1007.1 |
| 20260901075403 | 64 | 135 | 0.0 | 0.0 | 0.00 | 0.00 | 0.00 | 86 | 1007.1 |
| 20260901074903 | 64 | 135 | 0.0 | 0.0 | 0.00 | 0.00 | 0.00 | 87 | 1007.0 |
| 20260901074403 | 64 | 135 | 0.0 | 0.0 | 0.00 | 0.00 | 0.00 | 88 | 1007.0 |
| 20260901073903 | 63 | 135 | 0.0 | 0.0 | 0.00 | 0.00 | 0.00 | 88 | 1006.9 |
| 20260901073403 | 63 | 135 | 0.0 | 0.0 | 0.00 | 0.00 | 0.00 | 87 | 1006.8 |
| 20260901072903 | 63 | 135 | 0.0 | 0.0 | 0.00 | 0.00 | 0.00 | 87 | 1006.9 |
| 20260901072402 | 63 | 135 | 0.0 | 2.0 | 0.00 | 0.00 | 0.00 | 87 | 1006.8 |
| 20260901071902 | 63 | 135 | 1.0 | 2.0 | 0.00 | 0.00 | 0.00 | 88 | 1006.8 |
| 20260901071846 | 63 | 133 | 0.0 | 2.0 | 0.00 | 0.00 | 0.00 | 88 | 1006.7 |
| 20260901070903 | 63 | 133 | 0.0 | 2.0 | 0.00 | 0.00 | 0.00 | 89 | 1006.7 |
| 20260901070402 | 63 | 133 | 0.0 | 2.0 | 0.00 | 0.00 | 0.00 | 89 | 1006.6 |
| 20260901065903 | 62 | 133 | 0.0 | 1.0 | 0.00 | 0.00 | 0.00 | 89 | 1006.6 |
| 20260901065402 | 62 | 266 | 0.0 | 0.0 | 0.00 | 0.00 | 0.00 | 90 | 1006.6 |
| 20260901065351 | 62 | 266 | 0.0 | 0.0 | 0.00 | 0.00 | 0.00 | 89 | 1006.6 |
| 20260901064402 | 62 | 266 | 0.0 | 0.0 | 0.00 | 0.00 | 0.00 | 90 | 1006.5 |
| 20260901063902 | 62 | 266 | 0.0 | 0.0 | 0.00 | 0.00 | 0.00 | 90 | 1006.5 |
| 20260901063402 | 62 | 266 | 0.0 | 0.0 | 0.00 | 0.00 | 0.00 | 90 | 1006.5 |
| 20260901063129 | 62 | 266 | 0.0 | 0.0 | 0.00 | 0.00 | 0.00 | 90 | 1006.5 |
| 20260901062403 | 62 | 266 | 0.0 | 0.0 | 0.00 | 0.00 | 0.00 | 90 | 1006.4 |
| 20260901061902 | 62 | 266 | 0.0 | 0.0 | 0.00 | 0.00 | 0.00 | 91 | 1006.4 |
| 20260901061402 | 62 | 266 | 0.0 | 0.0 | 0.00 | 0.00 | 0.00 | 91 | 1006.3 |
| 20260901060902 | 61 | 266 | 0.0 | 0.0 | 0.00 | 0.00 | 0.00 | 91 | 1006.3 |
| 20260901060824 | 61 | 266 | 0.0 | 1.0 | 0.00 | 0.00 | 0.00 | 91 | 1006.4 |
| 20260901055402 | 61 | 266 | 1.0 | 2.0 | 0.00 | 0.00 | 0.00 | 91 | 1006.4 |
| 20260901054902 | 61 | 266 | 0.0 | 2.0 | 0.00 | 0.00 | 0.00 | 91 | 1006.4 |
| 20260901054402 | 61 | 266 | 0.0 | 2.0 | 0.00 | 0.00 | 0.00 | 92 | 1006.4 |
| 20260901053902 | 61 | 266 | 0.0 | 2.0 | 0.00 | 0.00 | 0.00 | 92 | 1006.5 |
| 20260901053402 | 61 | 226 | 0.0 | 2.0 | 0.00 | 0.00 | 0.00 | 93 | 1006.4 |
| 20260901052903 | 61 | 226 | 0.0 | 2.0 | 0.00 | 0.00 | 0.00 | 93 | 1006.4 |
| 20260901052403 | 61 | 226 | 0.0 | 2.0 | 0.00 | 0.00 | 0.00 | 93 | 1006.4 |
| 20260901051902 | 61 | 221 | 0.0 | 2.0 | 0.00 | 0.00 | 0.00 | 94 | 1006.4 |
| 20260901051624 | 61 | 245 | 1.0 | 1.0 | 0.00 | 0.00 | 0.00 | 94 | 1006.3 |
| 20260901050902 | 61 | 245 | 0.0 | 0.0 | 0.00 | 0.00 | 0.00 | 94 | 1006.2 |
| 20260901050402 | 60 | 245 | 0.0 | 0.0 | 0.00 | 0.00 | 0.00 | 94 | 1006.3 |
| 20260901045902 | 60 | 245 | 0.0 | 0.0 | 0.00 | 0.00 | 0.00 | 94 | 1006.3 |
| 20260901045402 | 60 | 245 | 0.0 | 0.0 | 0.00 | 0.00 | 0.00 | 94 | 1006.3 |
| 20260901045122 | 60 | 245 | 0.0 | 0.0 | 0.00 | 0.00 | 0.00 | 94 | 1006.3 |
| 20260901044401 | 60 | 245 | 0.0 | 0.0 | 0.00 | 0.00 | 0.00 | 95 | 1006.4 |
| 20260901043902 | 60 | 245 | 0.0 | 0.0 | 0.00 | 0.00 | 0.00 | 95 | 1006.4 |
| 20260901043622 | 59 | 245 | 0.0 | 0.0 | 0.00 | 0.00 | 0.00 | 94 | 1006.4 |
| 20260901042902 | 59 | 245 | 0.0 | 0.0 | 0.00 | 0.00 | 0.00 | 94 | 1006.2 |
| 20260901042402 | 59 | 245 | 0.0 | 0.0 | 0.00 | 0.00 | 0.00 | 94 | 1006.3 |
| 20260901041902 | 59 | 245 | 0.0 | 0.0 | 0.00 | 0.00 | 0.00 | 94 | 1006.4 |
| 20260901041621 | 59 | 245 | 0.0 | 0.0 | 0.00 | 0.00 | 0.00 | 94 | 1006.4 |
| 20260901040902 | 59 | 245 | 0.0 | 0.0 | 0.00 | 0.00 | 0.00 | 94 | 1006.4 |
| 20260901040404 | 59 | 245 | 0.0 | 0.0 | 0.00 | 0.00 | 0.00 | 94 | 1006.3 |
| 20260901035903 | 59 | 245 | 0.0 | 0.0 | 0.00 | 0.00 | 0.00 | 94 | 1006.4 |
| 20260901035401 | 58 | 245 | 0.0 | 0.0 | 0.00 | 0.00 | 0.00 | 94 | 1006.4 |
| 20260901034901 | 58 | 245 | 0.0 | 0.0 | 0.00 | 0.00 | 0.00 | 94 | 1006.4 |
| 20260901034402 | 58 | 245 | 0.0 | 0.0 | 0.00 | 0.00 | 0.00 | 93 | 1006.4 |
| 20260901033902 | 58 | 245 | 0.0 | 0.0 | 0.00 | 0.00 | 0.00 | 94 | 1006.4 |
| 20260901033402 | 58 | 245 | 0.0 | 0.0 | 0.00 | 0.00 | 0.00 | 93 | 1006.4 |
| 20260901032902 | 58 | 245 | 0.0 | 0.0 | 0.00 | 0.00 | 0.00 | 93 | 1006.4 |
| 20260901032402 | 59 | 245 | 0.0 | 0.0 | 0.00 | 0.00 | 0.00 | 93 | 1006.3 |
| 20260901031902 | 59 | 245 | 0.0 | 0.0 | 0.00 | 0.00 | 0.00 | 93 | 1006.4 |
| 20260901031402 | 59 | 245 | 0.0 | 0.0 | 0.00 | 0.00 | 0.00 | 93 | 1006.3 |
| 20260901030902 | 59 | 245 | 0.0 | 0.0 | 0.00 | 0.00 | 0.00 | 93 | 1006.4 |
| 20260901030402 | 59 | 245 | 0.0 | 0.0 | 0.00 | 0.00 | 0.00 | 93 | 1006.3 |
| 20260901025902 | 59 | 245 | 0.0 | 0.0 | 0.00 | 0.00 | 0.00 | 92 | 1006.4 |
| 20260901025401 | 60 | 245 | 0.0 | 0.0 | 0.00 | 0.00 | 0.00 | 93 | 1006.3 |
| 20260901024902 | 60 | 245 | 0.0 | 0.0 | 0.00 | 0.00 | 0.00 | 93 | 1006.3 |
| 20260901024402 | 60 | 245 | 0.0 | 0.0 | 0.00 | 0.00 | 0.00 | 93 | 1006.4 |
| 20260901023902 | 60 | 245 | 0.0 | 0.0 | 0.00 | 0.00 | 0.00 | 93 | 1006.3 |
| 20260901023402 | 60 | 245 | 0.0 | 0.0 | 0.00 | 0.00 | 0.00 | 93 | 1006.3 |
| 20260901022902 | 60 | 245 | 0.0 | 0.0 | 0.00 | 0.00 | 0.00 | 93 | 1006.3 |
| 20260901022402 | 60 | 245 | 0.0 | 0.0 | 0.00 | 0.00 | 0.00 | 93 | 1006.4 |
| 20260901021902 | 60 | 245 | 0.0 | 1.0 | 0.00 | 0.00 | 0.00 | 93 | 1006.4 |
| 20260901021402 | 60 | 245 | 0.0 | 1.0 | 0.00 | 0.00 | 0.00 | 93 | 1006.3 |
| 20260901020902 | 60 | 245 | 0.0 | 0.0 | 0.00 | 0.00 | 0.00 | 93 | 1006.3 |
| 20260901020403 | 60 | 245 | 0.0 | 0.0 | 0.00 | 0.00 | 0.00 | 93 | 1006.3 |
| 20260901015902 | 60 | 245 | 0.0 | 0.0 | 0.00 | 0.00 | 0.00 | 93 | 1006.2 |
| 20260901015403 | 60 | 245 | 0.0 | 0.0 | 0.00 | 0.00 | 0.00 | 93 | 1006.2 |
| 20260901014903 | 60 | 245 | 0.0 | 0.0 | 0.00 | 0.00 | 0.00 | 93 | 1006.3 |
| 20260901014403 | 60 | 245 | 0.0 | 0.0 | 0.00 | 0.00 | 0.00 | 93 | 1006.3 |
| 20260901013903 | 60 | 245 | 0.0 | 0.0 | 0.00 | 0.00 | 0.00 | 92 | 1006.3 |
| 20260901013403 | 60 | 245 | 0.0 | 0.0 | 0.00 | 0.00 | 0.00 | 92 | 1006.3 |
| 20260901012903 | 60 | 245 | 0.0 | 0.0 | 0.00 | 0.00 | 0.00 | 92 | 1006.2 |
| 20260901012403 | 60 | 245 | 0.0 | 0.0 | 0.00 | 0.00 | 0.00 | 92 | 1006.3 |
| 20260901011903 | 60 | 245 | 0.0 | 0.0 | 0.00 | 0.00 | 0.00 | 92 | 1006.3 |
| 20260901011403 | 60 | 245 | 0.0 | 0.0 | 0.00 | 0.00 | 0.00 | 92 | 1006.3 |
| 20260901010903 | 60 | 245 | 0.0 | 0.0 | 0.00 | 0.00 | 0.00 | 92 | 1006.3 |
| 20260901010404 | 60 | 245 | 0.0 | 0.0 | 0.00 | 0.00 | 0.00 | 92 | 1006.4 |
| 20260901005903 | 60 | 245 | 0.0 | 0.0 | 0.00 | 0.00 | 0.00 | 92 | 1006.4 |
| 20260901005403 | 60 | 245 | 0.0 | 0.0 | 0.00 | 0.00 | 0.00 | 92 | 1006.5 |
| 20260901005121 | 60 | 245 | 0.0 | 0.0 | 0.00 | 0.00 | 0.00 | 92 | 1006.5 |
| 20260901004404 | 60 | 245 | 0.0 | 0.0 | 0.00 | 0.00 | 0.00 | 92 | 1006.5 |
| 20260901003904 | 60 | 245 | 0.0 | 0.0 | 0.00 | 0.00 | 0.00 | 92 | 1006.5 |
| 20260901003358 | 60 | 245 | 0.0 | 0.0 | 0.00 | 0.00 | 0.00 | 92 | 1006.5 |
| 20260901002850 | 60 | 245 | 0.0 | 0.0 | 0.00 | 0.00 | 0.00 | 92 | 1006.5 |
| 20260901002350 | 60 | 245 | 0.0 | 0.0 | 0.00 | 0.00 | 0.00 | 92 | 1006.6 |
| 20260901001842 | 60 | 245 | 0.0 | 0.0 | 0.00 | 0.00 | 0.00 | 92 | 1006.5 |
| 20260901001340 | 60 | 245 | 0.0 | 0.0 | 0.00 | 0.00 | 0.00 | 92 | 1006.5 |
| 20260901000839 | 60 | 245 | 0.0 | 0.0 | 0.00 | 0.00 | 0.00 | 92 | 1006.4 |
| 20260901000340 | 60 | 245 | 0.0 | 0.0 | 0.00 | 0.00 | 0.00 | 92 | 1006.5 |
| 20260831235839 | 60 | 245 | 0.0 | 0.0 | 0.00 | 0.00 | 0.00 | 92 | 1006.5 |
| 20260831235340 | 60 | 245 | 0.0 | 0.0 | 0.00 | 0.00 | 0.00 | 92 | 1006.6 |
| 20260831234839 | 60 | 247 | 0.0 | 0.0 | 0.00 | 0.00 | 0.00 | 91 | 1006.6 |
| 20260831234340 | 60 | 247 | 0.0 | 0.0 | 0.00 | 0.00 | 0.00 | 91 | 1006.6 |
| 20260831233839 | 60 | 247 | 0.0 | 0.0 | 0.00 | 0.00 | 0.00 | 91 | 1006.5 |
| 20260831233339 | 60 | 247 | 0.0 | 0.0 | 0.00 | 0.00 | 0.00 | 90 | 1006.6 |
| 20260831232839 | 60 | 247 | 0.0 | 0.0 | 0.00 | 0.00 | 0.00 | 90 | 1006.5 |
| 20260831232338 | 60 | 247 | 0.0 | 0.0 | 0.00 | 0.00 | 0.00 | 90 | 1006.5 |
| 20260831231838 | 60 | 247 | 0.0 | 0.0 | 0.00 | 0.00 | 0.00 | 90 | 1006.5 |
| 20260831231338 | 60 | 247 | 0.0 | 0.0 | 0.00 | 0.00 | 0.00 | 90 | 1006.5 |
| 20260831230839 | 60 | 247 | 0.0 | 0.0 | 0.00 | 0.00 | 0.00 | 90 | 1006.5 |
| 20260831230600 | 61 | 247 | 0.0 | 0.0 | 0.00 | 0.00 | 0.00 | 89 | 1006.6 |
| 20260831230106 | 61 | 247 | 0.0 | 0.0 | 0.00 | 0.00 | 0.00 | 89 | 1006.7 |
| 20260831225338 | 61 | 247 | 0.0 | 1.0 | 0.00 | 0.00 | 0.00 | 89 | 1006.6 |
| 20260831224838 | 61 | 247 | 0.0 | 2.0 | 0.00 | 0.00 | 0.00 | 89 | 1006.6 |
| 20260831224338 | 61 | 247 | 0.0 | 3.0 | 0.00 | 0.00 | 0.00 | 89 | 1006.7 |
| 20260831223838 | 61 | 240 | 1.0 | 5.0 | 0.00 | 0.00 | 0.00 | 89 | 1006.6 |
| 20260831223338 | 61 | 290 | 2.0 | 5.0 | 0.00 | 0.00 | 0.00 | 89 | 1006.7 |
| 20260831222838 | 61 | 281 | 0.0 | 3.0 | 0.00 | 0.00 | 0.00 | 90 | 1006.6 |
| 20260831222337 | 61 | 255 | 0.0 | 3.0 | 0.00 | 0.00 | 0.00 | 90 | 1006.7 |
| 20260831221838 | 61 | 281 | 2.0 | 3.0 | 0.00 | 0.00 | 0.00 | 90 | 1006.7 |
| 20260831221604 | 61 | 243 | 1.0 | 3.0 | 0.00 | 0.00 | 0.00 | 90 | 1006.8 |
| 20260831220837 | 61 | 271 | 0.0 | 3.0 | 0.00 | 0.00 | 0.00 | 90 | 1006.8 |
| 20260831220337 | 61 | 300 | 1.0 | 3.0 | 0.00 | 0.00 | 0.00 | 90 | 1006.8 |
| 20260831215837 | 61 | 248 | 0.0 | 3.0 | 0.00 | 0.00 | 0.00 | 90 | 1006.8 |
| 20260831215337 | 61 | 212 | 1.0 | 3.0 | 0.00 | 0.00 | 0.00 | 90 | 1006.8 |
| 20260831214836 | 61 | 216 | 0.0 | 2.0 | 0.00 | 0.00 | 0.00 | 90 | 1006.9 |
| 20260831214556 | 61 | 233 | 0.0 | 3.0 | 0.00 | 0.00 | 0.00 | 90 | 1006.9 |
| 20260831213837 | 61 | 231 | 1.0 | 4.0 | 0.00 | 0.00 | 0.00 | 90 | 1006.9 |
| 20260831213337 | 61 | 233 | 1.0 | 4.0 | 0.00 | 0.00 | 0.00 | 90 | 1006.9 |
| 20260831212836 | 61 | 141 | 0.0 | 3.0 | 0.00 | 0.00 | 0.00 | 90 | 1006.9 |
| 20260831212336 | 61 | 206 | 1.0 | 3.0 | 0.00 | 0.00 | 0.00 | 89 | 1006.9 |
| 20260831211836 | 61 | 214 | 0.0 | 3.0 | 0.00 | 0.00 | 0.00 | 89 | 1006.9 |
| 20260831211336 | 61 | 254 | 1.0 | 3.0 | 0.00 | 0.00 | 0.00 | 89 | 1006.9 |
| 20260831210836 | 61 | 168 | 0.0 | 2.0 | 0.00 | 0.00 | 0.00 | 89 | 1006.8 |
| 20260831210335 | 61 | 243 | 0.0 | 3.0 | 0.00 | 0.00 | 0.00 | 89 | 1006.8 |
| 20260831205835 | 61 | 212 | 0.0 | 4.0 | 0.00 | 0.00 | 0.00 | 89 | 1006.7 |
| 20260831205825 | 61 | 216 | 0.0 | 4.0 | 0.00 | 0.00 | 0.00 | 89 | 1006.8 |
| 20260831204835 | 61 | 199 | 1.0 | 2.0 | 0.00 | 0.00 | 0.00 | 89 | 1006.8 |
| 20260831204335 | 61 | 209 | 0.0 | 2.0 | 0.00 | 0.00 | 0.00 | 89 | 1006.7 |
| 20260831203835 | 61 | 209 | 0.0 | 2.0 | 0.00 | 0.00 | 0.00 | 88 | 1006.6 |
| 20260831203335 | 61 | 210 | 0.0 | 1.0 | 0.00 | 0.00 | 0.00 | 88 | 1006.6 |
| 20260831202835 | 61 | 210 | 0.0 | 3.0 | 0.00 | 0.00 | 0.00 | 88 | 1006.6 |
| 20260831202335 | 61 | 210 | 0.0 | 3.0 | 0.00 | 0.00 | 0.00 | 88 | 1006.6 |
| 20260831201835 | 61 | 209 | 0.0 | 2.0 | 0.00 | 0.00 | 0.00 | 88 | 1006.6 |
| 20260831201335 | 60 | 196 | 0.0 | 2.0 | 0.00 | 0.00 | 0.00 | 88 | 1006.6 |
| 20260831200834 | 60 | 196 | 0.0 | 0.0 | 0.00 | 0.00 | 0.00 | 88 | 1006.6 |
| 20260831200334 | 60 | 196 | 0.0 | 1.0 | 0.00 | 0.00 | 0.00 | 88 | 1006.6 |
| 20260831195835 | 60 | 196 | 0.0 | 1.0 | 0.00 | 0.00 | 0.00 | 88 | 1006.6 |
| 20260831195334 | 60 | 196 | 0.0 | 1.0 | 0.00 | 0.00 | 0.00 | 88 | 1006.6 |
| 20260831195056 | 60 | 196 | 0.0 | 1.0 | 0.00 | 0.00 | 0.00 | 88 | 1006.6 |
| 20260831194334 | 60 | 197 | 0.0 | 1.0 | 0.00 | 0.00 | 0.00 | 88 | 1006.6 |
| 20260831193834 | 60 | 197 | 0.0 | 1.0 | 0.00 | 0.00 | 0.00 | 88 | 1006.7 |
| 20260831193334 | 60 | 197 | 0.0 | 2.0 | 0.00 | 0.00 | 0.00 | 88 | 1006.6 |
| 20260831192834 | 60 | 197 | 0.0 | 2.0 | 0.00 | 0.00 | 0.00 | 88 | 1006.6 |
| 20260831192525 | 60 | 196 | 0.0 | 2.0 | 0.00 | 0.00 | 0.00 | 88 | 1006.7 |
| 20260831191333 | 60 | 200 | 0.0 | 0.0 | 0.00 | 0.00 | 0.00 | 87 | 1006.6 |
| 20260831190834 | 60 | 200 | 0.0 | 0.0 | 0.00 | 0.00 | 0.00 | 87 | 1006.5 |
| 20260831190334 | 60 | 200 | 0.0 | 0.0 | 0.00 | 0.00 | 0.00 | 87 | 1006.5 |
| 20260831185833 | 60 | 200 | 0.0 | 0.0 | 0.00 | 0.00 | 0.00 | 86 | 1006.6 |
| 20260831185334 | 60 | 200 | 0.0 | 0.0 | 0.00 | 0.00 | 0.00 | 86 | 1006.5 |
| 20260831184833 | 61 | 200 | 0.0 | 0.0 | 0.00 | 0.00 | 0.00 | 86 | 1006.5 |
| 20260831184331 | 61 | 200 | 0.0 | 0.0 | 0.00 | 0.00 | 0.00 | 86 | 1006.5 |
| 20260831183831 | 61 | 200 | 0.0 | 0.0 | 0.00 | 0.00 | 0.00 | 85 | 1006.5 |
| 20260831183330 | 61 | 200 | 0.0 | 0.0 | 0.00 | 0.00 | 0.00 | 85 | 1006.6 |
| 20260831183050 | 61 | 200 | 0.0 | 0.0 | 0.00 | 0.00 | 0.00 | 84 | 1006.6 |
| 20260831182306 | 62 | 200 | 0.0 | 0.0 | 0.00 | 0.00 | 0.00 | 84 | 1006.6 |
| 20260831181805 | 62 | 200 | 0.0 | 0.0 | 0.00 | 0.00 | 0.00 | 83 | 1006.5 |
| 20260831181305 | 62 | 200 | 0.0 | 0.0 | 0.00 | 0.00 | 0.00 | 83 | 1006.6 |
| 20260831180806 | 62 | 200 | 0.0 | 0.0 | 0.00 | 0.00 | 0.00 | 82 | 1006.5 |
| 20260831180304 | 62 | 200 | 0.0 | 0.0 | 0.00 | 0.00 | 0.00 | 82 | 1006.5 |
| 20260831175804 | 63 | 200 | 0.0 | 0.0 | 0.00 | 0.00 | 0.00 | 82 | 1006.5 |
| 20260831175529 | 63 | 200 | 0.0 | 1.0 | 0.00 | 0.00 | 0.00 | 81 | 1006.5 |
| 20260831174803 | 63 | 200 | 0.0 | 2.0 | 0.00 | 0.00 | 0.00 | 81 | 1006.5 |
| 20260831174303 | 63 | 200 | 0.0 | 2.0 | 0.00 | 0.00 | 0.00 | 81 | 1006.5 |
| 20260831173803 | 63 | 200 | 0.0 | 2.0 | 0.00 | 0.00 | 0.00 | 81 | 1006.5 |
| 20260831173304 | 63 | 199 | 0.0 | 4.0 | 0.00 | 0.00 | 0.00 | 80 | 1006.6 |
| 20260831172803 | 63 | 197 | 1.0 | 4.0 | 0.00 | 0.00 | 0.00 | 80 | 1006.5 |
| 20260831172306 | 63 | 199 | 1.0 | 3.0 | 0.00 | 0.00 | 0.00 | 79 | 1006.6 |
| 20260831171803 | 64 | 195 | 0.0 | 3.0 | 0.00 | 0.00 | 0.00 | 79 | 1006.5 |
| 20260831171304 | 64 | 199 | 2.0 | 3.0 | 0.00 | 0.00 | 0.00 | 79 | 1006.6 |
| 20260831170804 | 64 | 228 | 0.0 | 5.0 | 0.00 | 0.00 | 0.00 | 78 | 1006.5 |
| 20260831170305 | 64 | 265 | 1.0 | 5.0 | 0.00 | 0.00 | 0.00 | 77 | 1006.5 |
| 20260831165804 | 64 | 257 | 1.0 | 2.0 | 0.00 | 0.00 | 0.00 | 77 | 1006.4 |
| 20260831165305 | 64 | 244 | 1.0 | 2.0 | 0.00 | 0.00 | 0.00 | 77 | 1006.4 |
| 20260831164805 | 64 | 247 | 1.0 | 5.0 | 0.00 | 0.00 | 0.00 | 76 | 1006.4 |
| 20260831164304 | 65 | 281 | 2.0 | 5.0 | 0.00 | 0.00 | 0.00 | 76 | 1006.3 |
| 20260831164027 | 65 | 264 | 2.0 | 4.0 | 0.00 | 0.00 | 0.00 | 75 | 1006.4 |
| 20260831163305 | 65 | 243 | 1.0 | 5.0 | 0.00 | 0.00 | 0.00 | 74 | 1006.4 |
| 20260831162805 | 65 | 252 | 2.0 | 5.0 | 0.00 | 0.00 | 0.00 | 73 | 1006.3 |
| 20260831162306 | 65 | 226 | 1.0 | 5.0 | 0.00 | 0.00 | 0.00 | 73 | 1006.4 |
| 20260831161804 | 65 | 265 | 0.0 | 5.0 | 0.00 | 0.00 | 0.00 | 73 | 1006.4 |
| 20260831161305 | 65 | 290 | 2.0 | 3.0 | 0.00 | 0.00 | 0.00 | 72 | 1006.3 |
| 20260831160805 | 65 | 254 | 1.0 | 5.0 | 0.00 | 0.00 | 0.00 | 72 | 1006.4 |
| 20260831160304 | 66 | 230 | 2.0 | 5.0 | 0.00 | 0.00 | 0.00 | 72 | 1006.4 |
| 20260831155805 | 66 | 257 | 2.0 | 4.0 | 0.00 | 0.00 | 0.00 | 72 | 1006.4 |
| 20260831155306 | 66 | 285 | 1.0 | 3.0 | 0.00 | 0.00 | 0.00 | 73 | 1006.4 |
| 20260831154804 | 66 | 279 | 0.0 | 4.0 | 0.00 | 0.00 | 0.00 | 73 | 1006.5 |
| 20260831154305 | 65 | 279 | 1.0 | 4.0 | 0.00 | 0.00 | 0.00 | 72 | 1006.4 |
| 20260831154249 | 65 | 289 | 1.0 | 4.0 | 0.00 | 0.00 | 0.00 | 73 | 1006.2 |
| 20260831153758 | 65 | 326 | 2.0 | 9.0 | 0.00 | 0.00 | 0.00 | 72 | 1006.4 |
| 20260831153023 | 65 | 269 | 4.0 | 9.0 | 0.00 | 0.00 | 0.00 | 71 | 1006.4 |
| 20260831152306 | 65 | 306 | 3.0 | 6.0 | 0.00 | 0.00 | 0.00 | 71 | 1006.4 |
| 20260831151806 | 65 | 306 | 1.0 | 9.0 | 0.00 | 0.00 | 0.00 | 72 | 1006.4 |
| 20260831151305 | 65 | 272 | 5.0 | 9.0 | 0.00 | 0.00 | 0.00 | 70 | 1006.5 |
| 20260831150805 | 66 | 298 | 3.0 | 7.0 | 0.00 | 0.00 | 0.00 | 72 | 1006.5 |
| 20260831150305 | 66 | 261 | 2.0 | 6.0 | 0.00 | 0.00 | 0.00 | 71 | 1006.6 |
| 20260831145805 | 66 | 243 | 1.0 | 7.0 | 0.00 | 0.00 | 0.00 | 71 | 1006.5 |
| 20260831145306 | 66 | 312 | 2.0 | 7.0 | 0.00 | 0.00 | 0.00 | 70 | 1006.4 |
| 20260831144805 | 66 | 283 | 3.0 | 9.0 | 0.00 | 0.00 | 0.00 | 69 | 1006.4 |
| 20260831144523 | 67 | 286 | 4.0 | 9.0 | 0.00 | 0.00 | 0.00 | 70 | 1006.3 |
| 20260831143805 | 66 | 323 | 3.0 | 6.0 | 0.00 | 0.00 | 0.00 | 72 | 1006.2 |
| 20260831143304 | 66 | 310 | 2.0 | 7.0 | 0.00 | 0.00 | 0.00 | 72 | 1006.1 |
| 20260831142805 | 66 | 275 | 4.0 | 7.0 | 0.00 | 0.00 | 0.00 | 71 | 1006.1 |
| 20260831142306 | 66 | 290 | 4.0 | 11.0 | 0.00 | 0.00 | 0.00 | 71 | 1006.1 |
| 20260831141805 | 65 | 245 | 4.0 | 11.0 | 0.00 | 0.00 | 0.00 | 71 | 1006.1 |
| 20260831141304 | 65 | 245 | 4.0 | 12.0 | 0.00 | 0.00 | 0.00 | 73 | 1006.1 |
| 20260831140804 | 65 | 300 | 7.0 | 12.0 | 0.00 | 0.00 | 0.00 | 73 | 1006.1 |
| 20260831140304 | 65 | 285 | 4.0 | 11.0 | 0.00 | 0.00 | 0.00 | 73 | 1006.1 |
| 20260831135805 | 65 | 226 | 3.0 | 10.0 | 0.00 | 0.00 | 0.00 | 73 | 1006.2 |
| 20260831135537 | 65 | 266 | 2.0 | 10.0 | 0.00 | 0.00 | 0.00 | 74 | 1006.1 |
| 20260831134805 | 65 | 288 | 6.0 | 10.0 | 0.00 | 0.00 | 0.00 | 74 | 1006.1 |
| 20260831134305 | 65 | 313 | 5.0 | 11.0 | 0.00 | 0.00 | 0.00 | 74 | 1006.2 |
| 20260831133805 | 65 | 265 | 3.0 | 13.0 | 0.00 | 0.00 | 0.00 | 75 | 1006.1 |
| 20260831133303 | 65 | 276 | 5.0 | 13.0 | 0.00 | 0.00 | 0.00 | 74 | 1006.2 |
| 20260831133034 | 65 | 269 | 6.0 | 16.0 | 0.00 | 0.00 | 0.00 | 74 | 1006.1 |
| 20260831132524 | 65 | 266 | 4.0 | 16.0 | 0.00 | 0.00 | 0.00 | 74 | 1006.2 |
| 20260831131804 | 65 | 283 | 5.0 | 14.0 | 0.00 | 0.00 | 0.00 | 75 | 1006.1 |
| 20260831131304 | 65 | 275 | 4.0 | 14.0 | 0.00 | 0.00 | 0.00 | 75 | 1006.1 |
| 20260831130804 | 66 | 274 | 7.0 | 17.0 | 0.00 | 0.00 | 0.00 | 75 | 1006.1 |
| 20260831130304 | 66 | 316 | 8.0 | 17.0 | 0.00 | 0.00 | 0.00 | 74 | 1006.0 |
| 20260831125806 | 66 | 268 | 4.0 | 12.0 | 0.00 | 0.00 | 0.00 | 75 | 1006.0 |
| 20260831125306 | 66 | 281 | 4.0 | 12.0 | 0.00 | 0.00 | 0.00 | 75 | 1006.0 |
| 20260831124805 | 67 | 258 | 5.0 | 12.0 | 0.00 | 0.00 | 0.00 | 74 | 1006.0 |
| 20260831124305 | 67 | 300 | 4.0 | 12.0 | 0.00 | 0.00 | 0.00 | 74 | 1006.0 |
| 20260831123805 | 67 | 278 | 6.0 | 12.0 | 0.00 | 0.00 | 0.00 | 74 | 1006.0 |
| 20260831123306 | 67 | 268 | 6.0 | 12.0 | 0.00 | 0.00 | 0.00 | 74 | 1005.8 |
| 20260831122805 | 68 | 279 | 7.0 | 13.0 | 0.00 | 0.00 | 0.00 | 73 | 1005.8 |
| 20260831122306 | 67 | 255 | 7.0 | 13.0 | 0.00 | 0.00 | 0.00 | 73 | 1005.8 |
| 20260831122008 | 67 | 241 | 4.0 | 9.0 | 0.00 | 0.00 | 0.00 | 75 | 1005.7 |
| 20260831121231 | 67 | 269 | 2.0 | 10.0 | 0.00 | 0.00 | 0.00 | 75 | 1005.7 |
| 20260831120738 | 67 | 282 | 6.0 | 10.0 | 0.00 | 0.00 | 0.00 | 75 | 1005.7 |
| 20260831120231 | 68 | 299 | 4.0 | 9.0 | 0.00 | 0.00 | 0.00 | 75 | 1005.6 |
| 20260831115731 | 68 | 292 | 4.0 | 7.0 | 0.00 | 0.00 | 0.00 | 75 | 1005.6 |
| 20260831115231 | 68 | 269 | 5.0 | 7.0 | 0.00 | 0.00 | 0.00 | 76 | 1005.6 |
| 20260831114731 | 68 | 286 | 2.0 | 6.0 | 0.00 | 0.00 | 0.00 | 75 | 1005.6 |
| 20260831114231 | 67 | 285 | 2.0 | 9.0 | 0.00 | 0.00 | 0.00 | 76 | 1005.6 |
| 20260831113731 | 67 | 257 | 3.0 | 9.0 | 0.00 | 0.00 | 0.00 | 75 | 1005.5 |
| 20260831113449 | 67 | 271 | 5.0 | 9.0 | 0.00 | 0.00 | 0.00 | 75 | 1005.5 |
| 20260831112730 | 67 | 289 | 3.0 | 7.0 | 0.00 | 0.00 | 0.00 | 76 | 1005.5 |
| 20260831112231 | 67 | 302 | 4.0 | 7.0 | 0.00 | 0.00 | 0.00 | 76 | 1005.4 |
| 20260831111731 | 67 | 282 | 3.0 | 7.0 | 0.00 | 0.00 | 0.00 | 77 | 1005.4 |
| 20260831111423 | 67 | 303 | 5.0 | 11.0 | 0.00 | 0.00 | 0.00 | 77 | 1005.4 |
| 20260831110455 | 67 | 283 | 4.0 | 9.0 | 0.00 | 0.00 | 0.00 | 76 | 1005.3 |
| 20260831105952 | 67 | 285 | 4.0 | 9.0 | 0.00 | 0.00 | 0.00 | 77 | 1005.4 |
| 20260831105230 | 66 | 309 | 3.0 | 7.0 | 0.00 | 0.00 | 0.00 | 78 | 1005.2 |
| 20260831104731 | 66 | 306 | 4.0 | 9.0 | 0.00 | 0.00 | 0.00 | 79 | 1005.1 |